Location: Angwan Shehu
(11.2514°N, 7.4613°E)
Time: 10:10:02
(UTC+00:00)

Cosmos 2297 Rocket - Pass Details

Date: 14 November 2019
Orbit: 839 x 843 km, 71.0° (Epoch: 12 December)

Event Time Altitude Azimuth Distance (km) Brightness Sun altitude
Rises 19:03:01 0° 330° (NNW) 3,388 5.5 -29.0°
Reaches altitude 10° 19:05:37 10° 322° (NW) 2,454 4.8 -29.7°
Maximum altitude 19:10:45 37° 256° (WSW) 1,286 3.6 -30.9°
Drops below altitude 10° 19:15:53 10° 190° (S) 2,455 4.8 -32.1°
Sets 19:18:30 0° 182° (S) 3,389 5.5 -32.7°
